Weather History for KSIF - June, 2014

Change the Weather History Date:

Monday, June 9, 2014

  Actual Average (KGSO) Record (KGSO)
Temperature  
Mean Temperature 76 °F 74 °F  
Max Temperature 86 °F 83 °F 99 °F (1933)
Min Temperature 64 °F 64 °F 46 °F (1931)
Degree Days  
Heating Degree Days 0 0  
Month to date heating degree days 5  
Since 1 June heating degree days 5  
Since 1 July heating degree days 3617  
Cooling Degree Days 10 9  
Month to date cooling degree days 71  
Year to date cooling degree days 230  
Since 1 June cooling degree days 71  
Growing Degree Days 26 (Base 50)    
Moisture  
Dew Point 67 °F    
Average Humidity 79    
Maximum Humidity 99    
Minimum Humidity 51    
Precipitation  
Precipitation 0.06 in 0.13 in 2.00 in (1909)
Month to date precipitation 1.16  
Year to date precipitation 17.86  
Sea Level Pressure  
Sea Level Pressure 29.90 in    
Wind  
Wind Speed 2 mph (SSW)    
Max Wind Speed 10 mph    
Max Gust Speed -    
Visibility 9 miles    
Events Rain    
T = Trace of Precipitation, MM = Missing Value Source: NWS Daily Summary

Daily Weather History Graph

Daily Weather History Graph

Search for Another Location

Airport or City:

Trip Planner

Search our weather history database for the weather conditions in past years. The results will help you decide how hot, cold, wet, or windy it might be!

Date:

Astronomy

Jun. 09, 2014 Rise Set
Actual Time 6:01 AM EDT 8:36 PM EDT
Civil Twilight 5:30 AM EDT 9:06 PM EDT
Nautical Twilight 4:53 AM EDT 9:44 PM EDT
Astronomical Twilight 4:11 AM EDT 10:26 PM EDT
Moon 5:01 PM EDT (6/9) 3:21 AM EDT (6/9)
Length of Visible Light 15h 36m
Length of Day
14h 35m
Waxing Gibbous, 85% of the Moon is Illuminated
Jun 9
Waxing Gibbous
Jun 13
Full
Jun 19
Last Quarter
Jun 27
New
Jul 5
First Quarter

Hourly Weather History & Observations

Time (EDT) Temp. Heat Index Dew Point Humidity Pressure Visibility Wind Dir Wind Speed Gust Speed Precip Events Conditions
12:15 AM 69.1 °F - 67.3 °F 94% 29.92 in 10.0 mi Calm Calm - N/A   Overcast
12:35 AM 69.4 °F - 67.1 °F 92% 29.92 in 10.0 mi Calm Calm - N/A   Overcast
12:55 AM 69.6 °F - 66.9 °F 91% 29.92 in 10.0 mi SSW 3.5 mph - N/A   Overcast
1:15 AM 69.8 °F - 66.9 °F 91% 29.92 in 10.0 mi Calm Calm - N/A   Overcast
1:35 AM 69.8 °F - 67.1 °F 91% 29.91 in 10.0 mi SSW 3.5 mph - N/A   Overcast
1:55 AM 69.3 °F - 66.9 °F 92% 29.92 in 10.0 mi Calm Calm - N/A   Overcast
2:15 AM 69.8 °F - 67.1 °F 91% 29.91 in 10.0 mi Calm Calm - N/A   Overcast
2:35 AM 70.2 °F - 66.9 °F 89% 29.90 in 10.0 mi South 3.5 mph - N/A   Overcast
2:55 AM 70.2 °F - 66.7 °F 89% 29.90 in 10.0 mi SSW 3.5 mph - N/A   Overcast
3:15 AM 69.8 °F - 66.4 °F 89% 29.89 in 10.0 mi South 4.6 mph - N/A   Scattered Clouds
3:35 AM 68.9 °F - 66.6 °F 92% 29.89 in 10.0 mi Calm Calm - N/A   Mostly Cloudy
3:55 AM 67.6 °F - 65.5 °F 93% 29.89 in 10.0 mi Calm Calm - N/A   Mostly Cloudy
4:15 AM 65.7 °F - 64.6 °F 96% 29.90 in 5.0 mi Calm Calm - N/A   Scattered Clouds
4:35 AM 68.0 °F - 67.1 °F 97% 29.89 in 10.0 mi Calm Calm - N/A   Mostly Cloudy
4:55 AM 68.2 °F - 67.3 °F 97% 29.89 in 7.0 mi Calm Calm - N/A   Overcast
5:15 AM 68.4 °F - 67.3 °F 96% 29.88 in 10.0 mi Calm Calm - N/A   Overcast
5:35 AM 67.6 °F - 66.6 °F 96% 29.88 in 7.0 mi Calm Calm - N/A   Overcast
5:55 AM 68.2 °F - 67.3 °F 97% 29.89 in 10.0 mi Calm Calm - N/A   Overcast
6:15 AM 67.8 °F - 66.7 °F 96% 29.90 in 7.0 mi Calm Calm - N/A   Overcast
6:35 AM 68.5 °F - 67.6 °F 97% 29.90 in 10.0 mi Calm Calm - N/A   Overcast
6:55 AM 68.9 °F - 67.3 °F 95% 29.91 in 7.0 mi Calm Calm - N/A   Overcast
7:15 AM 69.1 °F - 67.5 °F 95% 29.91 in 7.0 mi Calm Calm - N/A   Overcast
7:55 AM 70.5 °F - 68.2 °F 92% 29.92 in 10.0 mi Calm Calm - N/A   Overcast
8:35 AM 70.9 °F - 68.0 °F 91% 29.93 in 10.0 mi Calm Calm - N/A   Scattered Clouds
8:55 AM 72.0 °F - 67.5 °F 86% 29.93 in 10.0 mi Calm Calm - N/A   Scattered Clouds
9:15 AM 73.4 °F - 66.6 °F 79% 29.94 in 10.0 mi Calm Calm - N/A   Clear
9:35 AM 74.8 °F - 66.4 °F 75% 29.94 in 10.0 mi Calm Calm - N/A   Clear
9:55 AM 75.7 °F - 66.9 °F 74% 29.93 in 10.0 mi Calm Calm - N/A   Clear
10:15 AM 77.0 °F - 66.7 °F 70% 29.93 in 10.0 mi Calm Calm - N/A   Clear
10:35 AM 75.9 °F - 66.6 °F 73% 29.92 in 10.0 mi Calm Calm - N/A   Clear
10:55 AM 79.0 °F - 67.6 °F 68% 29.92 in 10.0 mi Calm Calm - N/A   Clear
11:15 AM 79.3 °F - 66.2 °F 64% 29.92 in 10.0 mi Calm Calm - N/A   Clear
11:35 AM 79.3 °F - 66.9 °F 66% 29.92 in 10.0 mi Calm Calm - N/A   Clear
11:55 AM 79.0 °F - 66.9 °F 66% 29.92 in 10.0 mi Calm Calm - N/A   Scattered Clouds
12:15 PM 79.9 °F - 66.9 °F 64% 29.91 in 10.0 mi Calm Calm - N/A   Mostly Cloudy
12:35 PM 82.0 °F 84.5 °F 66.7 °F 60% 29.92 in 10.0 mi SSW 5.8 mph - N/A   Mostly Cloudy
12:55 PM 83.7 °F 86.2 °F 66.7 °F 57% 29.91 in 10.0 mi SW 5.8 mph - N/A   Scattered Clouds
1:15 PM 83.1 °F 85.9 °F 67.6 °F 59% 29.91 in 10.0 mi SW 4.6 mph - N/A   Scattered Clouds
1:35 PM 83.5 °F 86.2 °F 67.3 °F 58% 29.91 in 10.0 mi South 5.8 mph - N/A   Mostly Cloudy
1:55 PM 83.5 °F 86.0 °F 66.9 °F 57% 29.90 in 10.0 mi SSW 9.2 mph - N/A   Mostly Cloudy
2:15 PM 84.4 °F 87.1 °F 67.3 °F 56% 29.90 in 10.0 mi SW 8.1 mph - N/A   Mostly Cloudy
2:35 PM 85.5 °F 89.1 °F 68.7 °F 57% 29.89 in 10.0 mi South 4.6 mph - N/A   Scattered Clouds
3:35 PM 85.1 °F 87.9 °F 67.5 °F 55% 29.88 in 10.0 mi South 6.9 mph - N/A   Scattered Clouds
3:55 PM 85.3 °F 87.9 °F 66.9 °F 54% 29.87 in 10.0 mi SSW 6.9 mph - N/A   Mostly Cloudy
4:15 PM 86.9 °F 90.3 °F 67.8 °F 53% 29.87 in 10.0 mi South 6.9 mph - N/A   Scattered Clouds
4:35 PM 86.7 °F 89.3 °F 66.7 °F 51% 29.86 in 10.0 mi WSW 4.6 mph - N/A   Scattered Clouds
4:55 PM 85.6 °F 87.9 °F 66.2 °F 52% 29.86 in 10.0 mi South 5.8 mph - N/A   Scattered Clouds
5:15 PM 86.0 °F 88.8 °F 67.3 °F 53% 29.86 in 10.0 mi SSE 6.9 mph - N/A   Scattered Clouds
5:35 PM 86.2 °F 89.1 °F 67.3 °F 53% 29.86 in 10.0 mi South 5.8 mph - N/A   Scattered Clouds
5:55 PM 85.1 °F 87.4 °F 66.4 °F 53% 29.86 in 10.0 mi South 5.8 mph - N/A   Scattered Clouds
6:15 PM 83.5 °F 86.0 °F 66.6 °F 57% 29.86 in 10.0 mi South 5.8 mph - N/A   Clear
6:35 PM 82.6 °F 85.3 °F 67.3 °F 60% 29.87 in 10.0 mi South 4.6 mph - N/A   Clear
6:55 PM 81.9 °F 84.2 °F 66.7 °F 60% 29.88 in 10.0 mi South 4.6 mph - N/A   Scattered Clouds
7:15 PM 81.3 °F 83.8 °F 67.1 °F 62% 29.89 in 10.0 mi SSW 3.5 mph - N/A   Mostly Cloudy
7:35 PM 80.2 °F 82.7 °F 67.6 °F 65% 29.89 in 10.0 mi SSW 5.8 mph - N/A Rain Light Rain
7:55 PM 74.5 °F - 69.6 °F 85% 29.91 in 5.0 mi SW 10.4 mph - 0.02 in Rain Rain
8:15 PM 71.4 °F - 68.4 °F 90% 29.90 in 7.0 mi SW 4.6 mph - 0.02 in Rain Rain
8:35 PM 70.0 °F - 67.1 °F 91% 29.89 in 10.0 mi Calm Calm - 0.03 in Rain Light Rain
8:55 PM 69.3 °F - 67.1 °F 93% 29.90 in 10.0 mi Calm Calm - 0.03 in   Clear
9:15 PM 69.1 °F - 66.9 °F 93% 29.91 in 10.0 mi Calm Calm - N/A Rain Light Rain
9:35 PM 68.5 °F - 67.1 °F 95% 29.91 in 10.0 mi Calm Calm - N/A   Light Drizzle
9:55 PM 68.0 °F - 66.9 °F 96% 29.92 in 10.0 mi Calm Calm - 0.01 in   Clear
10:15 PM 68.0 °F - 67.1 °F 97% 29.94 in 10.0 mi Calm Calm - N/A   Scattered Clouds
10:35 PM 68.0 °F - 67.1 °F 97% 29.93 in 10.0 mi Calm Calm - N/A   Scattered Clouds
10:55 PM 68.0 °F - 67.1 °F 97% 29.93 in 10.0 mi Calm Calm - N/A   Scattered Clouds
11:15 PM 66.2 °F - 65.3 °F 97% 29.92 in 7.0 mi Calm Calm - N/A   Clear
11:35 PM 65.7 °F - 65.1 °F 98% 29.91 in 5.0 mi Calm Calm - N/A   Clear
11:55 PM 64.9 °F - 64.6 °F 99% 29.91 in 7.0 mi Calm Calm - N/A   Clear